Regional Weather Roundup
Issued by NWS Tiyan, Guam

Home | Current Version | Previous Version | Text Only | Print | Product List | Glossary On
Versions: 1 2 3 4 5 6 7 8 9 10 11 12 13 14 15 16 17 18 19 20 21 22 23 24 25 26 27
000
ASGM40 PGUM 230712
RWRGUM
WEATHER ROUNDUP FOR THE MARIANAS
NATIONAL WEATHER SERVICE TIYAN GU
500 PM CHST SUN JUL 23 2017

GUZ001>004-230800-
MARIANA ISLANDS-

CITY           SKY/WX    TMP DP  RH WIND       PRES   REMARKS
GUAM AIRPORT   MOSUNNY   82  81  94 SE5       29.79F HX  95
ANDERSEN AFB   PTSUNNY   82  77  83 SE8       29.80F HX  91
ROTA AIRPORT   MOSUNNY   82  79  89 E8        29.80R HX  93
TINIAN AP      MOSUNNY   86  77  74 E7        29.77S HX  97
SAIPAN AP      PTSUNNY   90  77  66 SE8       29.78S HX 102

$$





USA.gov is the U.S. government's official web portal to all federal, state and local government web resources and services.